Location: Johnson City
(36.3130°N, 82.3540°W)
Time: 23:46:56
(UTC-04:00)

X-37B - Visible Passes

Search period start: 01 October 2022 00:00
Search period end: 11 October 2022 00:00
Orbit: 329 x 342 km, 45.0° (Epoch: 29 September)

Date Brightness Start Highest point End Pass type
(mag) Time Alt. Az. Time Alt. Az. Time Alt. Az.
01 Oct 3.2 05:35:21 14° NNE 05:35:21 14° NNE 05:36:26 10° NE visible
02 Oct 2.7 05:55:00 16° N 05:55:34 16° N 05:57:32 10° NE visible
03 Oct 2.3 06:14:42 16° NNW 06:16:18 24° NNE 06:18:45 10° ENE visible
04 Oct 1.0 06:34:30 13° NW 06:36:55 52° NNE 06:39:44 10° ESE visible
05 Oct 3.4 05:23:08 17° ENE 05:23:08 17° ENE 05:24:11 10° ENE visible
05 Oct 0.6 06:54:32 10° WNW 06:57:21 50° SW 07:00:08 10° SE visible
06 Oct 1.9 05:43:09 36° E 05:43:09 36° E 05:45:09 10° ESE visible
07 Oct 1.0 06:03:17 43° S 06:03:17 43° S 06:05:34 10° SE visible
08 Oct 2.4 06:23:33 16° SSW 06:23:33 16° SSW 06:24:58 10° S visible
